Location: Hac?musa Deresi
(39.1694°N, 32.2508°E)
Time: 15:23:00
(UTC+00:00)

Meteor 1-31 Rocket - Pass Details

Date: 22 April 2026
Orbit: 454 x 472 km, 97.6° (Epoch: 11 May)

Event Time Altitude Azimuth Distance (km) Brightness Sun altitude
Exits shadow 18:22:14 11° 205° (SSW) 1,569 5.0 -19.4°
Maximum altitude 18:25:05 27° 263° (W) 940 4.5 -19.9°
Drops below altitude 10° 18:28:08 10° 323° (NW) 1,641 6.3 -20.3°
Sets 18:30:24 0° 336° (NNW) 2,522 7.2 -20.7°
